| time (UTC) | temp F | wind direction | speed MPH | gust MPH | rain 1hr in | rain 24hr in | rain mn in | humidity % | barometer mb |
| 20260507081909 | 31 | 188 | 1.0 | 2.0 | 0.00 | 0.00 | 0.00 | 90 | 1012.8 |
| 20260507081409 | 31 | 184 | 1.0 | 2.0 | 0.00 | 0.00 | 0.00 | 90 | 1012.7 |
| 20260507080909 | 31 | 167 | 1.0 | 2.0 | 0.00 | 0.00 | 0.00 | 90 | 1012.8 |
| 20260507080410 | 31 | 164 | 1.0 | 2.0 | 0.00 | 0.00 | 0.00 | 90 | 1012.7 |
| 20260507075909 | 31 | 178 | 1.0 | 2.0 | 0.00 | 0.00 | 0.00 | 90 | 1012.7 |
| 20260507075409 | 31 | 161 | 2.0 | 2.0 | 0.00 | 0.00 | 0.00 | 89 | 1012.7 |
| 20260507074909 | 31 | 167 | 1.0 | 3.0 | 0.00 | 0.00 | 0.00 | 89 | 1012.8 |
| 20260507074410 | 31 | 181 | 1.0 | 3.0 | 0.00 | 0.00 | 0.00 | 88 | 1012.8 |
| 20260507073909 | 31 | 176 | 2.0 | 3.0 | 0.00 | 0.00 | 0.00 | 88 | 1012.9 |
| 20260507073409 | 31 | 184 | 1.0 | 3.0 | 0.00 | 0.00 | 0.00 | 87 | 1012.9 |
| 20260507072909 | 31 | 175 | 2.0 | 3.0 | 0.00 | 0.00 | 0.00 | 87 | 1012.9 |
| 20260507072409 | 31 | 179 | 2.0 | 3.0 | 0.00 | 0.00 | 0.00 | 87 | 1012.9 |
| 20260507071909 | 31 | 174 | 1.0 | 2.0 | 0.00 | 0.00 | 0.00 | 87 | 1012.9 |
| 20260507071409 | 32 | 175 | 1.0 | 2.0 | 0.00 | 0.00 | 0.00 | 86 | 1013.0 |
| 20260507070909 | 32 | 164 | 1.0 | 2.0 | 0.00 | 0.00 | 0.00 | 86 | 1013.0 |
| 20260507070409 | 32 | 164 | 1.0 | 2.0 | 0.00 | 0.00 | 0.00 | 86 | 1013.1 |
| 20260507065410 | 32 | 162 | 1.0 | 3.0 | 0.00 | 0.00 | 0.00 | 85 | 1013.2 |
| 20260507064909 | 33 | 187 | 1.0 | 3.0 | 0.00 | 0.00 | 0.00 | 84 | 1013.1 |
| 20260507063910 | 33 | 172 | 1.0 | 3.0 | 0.00 | 0.00 | 0.00 | 84 | 1013.2 |
| 20260507063410 | 33 | 155 | 2.0 | 3.0 | 0.00 | 0.00 | 0.00 | 83 | 1013.2 |
| 20260507062410 | 34 | 166 | 1.0 | 2.0 | 0.00 | 0.00 | 0.00 | 83 | 1013.2 |
| 20260507061909 | 34 | 173 | 1.0 | 2.0 | 0.00 | 0.00 | 0.00 | 82 | 1013.2 |
| 20260507061408 | 34 | 172 | 1.0 | 3.0 | 0.00 | 0.00 | 0.00 | 81 | 1013.2 |
| 20260507060910 | 35 | 172 | 1.0 | 2.0 | 0.00 | 0.00 | 0.00 | 81 | 1013.3 |
| 20260507060410 | 35 | 188 | 2.0 | 3.0 | 0.00 | 0.00 | 0.00 | 81 | 1013.3 |
| 20260507055911 | 35 | 177 | 2.0 | 3.0 | 0.00 | 0.00 | 0.00 | 80 | 1013.3 |
| 20260507055410 | 36 | 176 | 1.0 | 3.0 | 0.00 | 0.00 | 0.00 | 80 | 1013.3 |
| 20260507054909 | 36 | 171 | 1.0 | 3.0 | 0.00 | 0.00 | 0.00 | 79 | 1013.3 |
| 20260507053909 | 37 | 159 | 2.0 | 3.0 | 0.00 | 0.00 | 0.00 | 77 | 1013.3 |
| 20260507053409 | 37 | 168 | 1.0 | 3.0 | 0.00 | 0.00 | 0.00 | 77 | 1013.4 |
| 20260507052910 | 37 | 177 | 1.0 | 3.0 | 0.00 | 0.00 | 0.00 | 77 | 1013.4 |
| 20260507051409 | 38 | 168 | 1.0 | 3.0 | 0.00 | 0.00 | 0.00 | 76 | 1013.5 |
| 20260507050909 | 38 | 197 | 1.0 | 3.0 | 0.00 | 0.00 | 0.00 | 76 | 1013.6 |
| 20260507045909 | 38 | 209 | 1.0 | 3.0 | 0.00 | 0.00 | 0.00 | 75 | 1013.6 |
| 20260507045409 | 39 | 184 | 1.0 | 3.0 | 0.00 | 0.00 | 0.00 | 75 | 1013.6 |
| 20260507044909 | 39 | 179 | 1.0 | 3.0 | 0.00 | 0.00 | 0.00 | 75 | 1013.6 |
| 20260507043910 | 39 | 162 | 2.0 | 8.0 | 0.00 | 0.00 | 0.00 | 76 | 1013.6 |
| 20260507043410 | 39 | 203 | 1.0 | 6.0 | 0.00 | 0.00 | 0.00 | 76 | 1013.7 |
| 20260507042909 | 39 | 6 | 1.0 | 3.0 | 0.00 | 0.00 | 0.00 | 76 | 1013.7 |
| 20260507042409 | 40 | 174 | 1.0 | 3.0 | 0.00 | 0.00 | 0.00 | 77 | 1013.8 |
| 20260507041910 | 40 | 268 | 2.0 | 5.0 | 0.00 | 0.00 | 0.00 | 77 | 1013.7 |
| 20260507040909 | 39 | 353 | 2.0 | 6.0 | 0.00 | 0.00 | 0.00 | 77 | 1013.7 |
| 20260507040409 | 39 | 302 | 2.0 | 3.0 | 0.00 | 0.00 | 0.00 | 77 | 1013.7 |
| 20260507035910 | 39 | 259 | 2.0 | 5.0 | 0.00 | 0.00 | 0.00 | 79 | 1013.7 |
| 20260507035410 | 39 | 239 | 1.0 | 3.0 | 0.00 | 0.00 | 0.00 | 78 | 1013.7 |
| 20260507034909 | 39 | 277 | 1.0 | 3.0 | 0.00 | 0.00 | 0.00 | 78 | 1013.7 |
| 20260507034410 | 39 | 277 | 1.0 | 2.0 | 0.00 | 0.00 | 0.00 | 76 | 1013.9 |
| 20260507033909 | 39 | 314 | 1.0 | 3.0 | 0.00 | 0.00 | 0.00 | 75 | 1013.9 |
| 20260507033409 | 39 | 272 | 2.0 | 3.0 | 0.00 | 0.00 | 0.00 | 74 | 1013.8 |
| 20260507031909 | 39 | 264 | 1.0 | 3.0 | 0.00 | 0.00 | 0.00 | 72 | 1013.7 |
| 20260507031409 | 40 | 270 | 1.0 | 3.0 | 0.00 | 0.00 | 0.00 | 72 | 1013.6 |
| 20260507030909 | 40 | 295 | 2.0 | 5.0 | 0.00 | 0.00 | 0.00 | 71 | 1013.6 |
| 20260507030409 | 40 | 105 | 1.0 | 3.0 | 0.00 | 0.00 | 0.00 | 71 | 1013.7 |
| 20260507025909 | 40 | 357 | 1.0 | 8.0 | 0.00 | 0.00 | 0.00 | 71 | 1013.7 |
| 20260507025409 | 40 | 270 | 1.0 | 3.0 | 0.00 | 0.00 | 0.00 | 72 | 1013.7 |
| 20260507024909 | 40 | 254 | 2.0 | 5.0 | 0.00 | 0.00 | 0.00 | 72 | 1013.6 |
| 20260507024410 | 41 | 298 | 1.0 | 5.0 | 0.00 | 0.00 | 0.00 | 73 | 1013.6 |
| 20260507023909 | 41 | 0 | 2.0 | 3.0 | 0.00 | 0.00 | 0.00 | 71 | 1013.7 |
| 20260507023408 | 41 | 48 | 2.0 | 3.0 | 0.00 | 0.00 | 0.00 | 70 | 1013.7 |
| 20260507021409 | 41 | 282 | 1.0 | 7.0 | 0.00 | 0.00 | 0.00 | 70 | 1013.6 |
| 20260507020909 | 41 | 354 | 2.0 | 6.0 | 0.00 | 0.00 | 0.00 | 70 | 1013.6 |
| 20260507020410 | 41 | 244 | 1.0 | 5.0 | 0.00 | 0.00 | 0.00 | 70 | 1013.5 |
| 20260507015909 | 41 | 4 | 1.0 | 3.0 | 0.00 | 0.00 | 0.00 | 69 | 1013.6 |
| 20260507014410 | 41 | 347 | 1.0 | 3.0 | 0.00 | 0.00 | 0.00 | 70 | 1013.4 |
| 20260507013909 | 41 | 55 | 1.0 | 7.0 | 0.00 | 0.00 | 0.00 | 69 | 1013.3 |
| 20260507013409 | 41 | 331 | 1.0 | 7.0 | 0.00 | 0.00 | 0.00 | 68 | 1013.4 |
| 20260507012909 | 41 | 15 | 2.0 | 5.0 | 0.00 | 0.00 | 0.00 | 67 | 1013.3 |
| 20260507011909 | 41 | 263 | 2.0 | 5.0 | 0.00 | 0.00 | 0.00 | 68 | 1013.3 |
| 20260507011409 | 41 | 292 | 1.0 | 3.0 | 0.00 | 0.00 | 0.00 | 68 | 1013.3 |
| 20260507010909 | 41 | 208 | 1.0 | 6.0 | 0.00 | 0.00 | 0.00 | 67 | 1013.3 |
| 20260507010409 | 42 | 3 | 2.0 | 6.0 | 0.00 | 0.00 | 0.00 | 67 | 1013.3 |
| 20260507005909 | 42 | 323 | 2.0 | 6.0 | 0.00 | 0.00 | 0.00 | 68 | 1013.3 |
| 20260507005409 | 42 | 328 | 1.0 | 2.0 | 0.00 | 0.00 | 0.00 | 67 | 1013.2 |
| 20260507004409 | 42 | 255 | 2.0 | 6.0 | 0.00 | 0.00 | 0.00 | 65 | 1013.1 |
| 20260507003909 | 42 | 269 | 2.0 | 5.0 | 0.00 | 0.00 | 0.00 | 64 | 1013.1 |
| 20260507003409 | 42 | 307 | 2.0 | 3.0 | 0.00 | 0.00 | 0.00 | 62 | 1013.0 |
| 20260507002910 | 42 | 193 | 1.0 | 5.0 | 0.00 | 0.00 | 0.00 | 62 | 1012.9 |
| 20260507002409 | 42 | 338 | 1.0 | 7.0 | 0.00 | 0.00 | 0.00 | 63 | 1012.9 |
| 20260507001409 | 42 | 253 | 2.0 | 5.0 | 0.00 | 0.00 | 0.00 | 67 | 1013.0 |
| 20260507000910 | 42 | 301 | 1.0 | 5.0 | 0.00 | 0.00 | 0.00 | 68 | 1013.0 |
| 20260507000409 | 42 | 346 | 2.0 | 3.0 | 0.00 | 0.00 | 0.00 | 69 | 1013.0 |
| 20260506235909 | 42 | 324 | 1.0 | 3.0 | 0.00 | 0.00 | 0.00 | 69 | 1013.0 |
| 20260506235409 | 42 | 354 | 1.0 | 6.0 | 0.00 | 0.00 | 0.00 | 68 | 1013.0 |
| 20260506234909 | 42 | 306 | 2.0 | 7.0 | 0.00 | 0.00 | 0.00 | 68 | 1013.0 |
| 20260506234410 | 42 | 321 | 1.0 | 6.0 | 0.00 | 0.00 | 0.00 | 70 | 1013.1 |
| 20260506233909 | 42 | 263 | 2.0 | 5.0 | 0.00 | 0.00 | 0.00 | 69 | 1013.0 |
| 20260506233409 | 43 | 262 | 2.0 | 9.0 | 0.00 | 0.00 | 0.00 | 69 | 1013.0 |
| 20260506232910 | 43 | 233 | 2.0 | 6.0 | 0.00 | 0.00 | 0.00 | 69 | 1013.0 |
| 20260506232410 | 43 | 277 | 1.0 | 3.0 | 0.00 | 0.00 | 0.00 | 69 | 1013.0 |
| 20260506231909 | 43 | 280 | 1.0 | 3.0 | 0.00 | 0.00 | 0.00 | 71 | 1012.9 |
| 20260506231409 | 43 | 332 | 1.0 | 3.0 | 0.00 | 0.00 | 0.00 | 71 | 1013.0 |
| 20260506230908 | 43 | 350 | 1.0 | 7.0 | 0.00 | 0.00 | 0.00 | 70 | 1012.9 |
| 20260506230409 | 43 | 344 | 1.0 | 3.0 | 0.00 | 0.00 | 0.00 | 71 | 1013.0 |
| 20260506225909 | 43 | 352 | 2.0 | 3.0 | 0.00 | 0.00 | 0.00 | 70 | 1013.1 |
| 20260506225409 | 43 | 353 | 1.0 | 3.0 | 0.00 | 0.00 | 0.00 | 69 | 1013.1 |
| 20260506224408 | 43 | 346 | 2.0 | 3.0 | 0.00 | 0.00 | 0.00 | 68 | 1013.1 |
| 20260506223909 | 43 | 324 | 2.0 | 5.0 | 0.00 | 0.00 | 0.00 | 67 | 1013.1 |
| 20260506223424 | 43 | 324 | 2.0 | 3.0 | 0.00 | 0.00 | 0.00 | 67 | 1013.1 |
| 20260506222913 | 43 | 348 | 2.0 | 6.0 | 0.00 | 0.00 | 0.00 | 66 | 1013.1 |
| 20260506222409 | 43 | 340 | 2.0 | 3.0 | 0.00 | 0.00 | 0.00 | 66 | 1013.1 |
| 20260506221909 | 44 | 347 | 3.0 | 7.0 | 0.00 | 0.00 | 0.00 | 66 | 1013.1 |
| 20260506221409 | 44 | 334 | 2.0 | 3.0 | 0.00 | 0.00 | 0.00 | 66 | 1013.0 |
| 20260506220909 | 44 | 343 | 2.0 | 5.0 | 0.00 | 0.00 | 0.00 | 66 | 1013.0 |
| 20260506220409 | 44 | 4 | 2.0 | 5.0 | 0.00 | 0.00 | 0.00 | 66 | 1013.0 |
| 20260506215410 | 44 | 10 | 3.0 | 5.0 | 0.00 | 0.00 | 0.00 | 68 | 1012.9 |
| 20260506214409 | 44 | 336 | 3.0 | 6.0 | 0.00 | 0.00 | 0.00 | 65 | 1012.9 |
| 20260506213409 | 44 | 346 | 2.0 | 5.0 | 0.00 | 0.00 | 0.00 | 66 | 1012.8 |
| 20260506212409 | 45 | 340 | 3.0 | 5.0 | 0.00 | 0.00 | 0.00 | 65 | 1012.7 |
| 20260506211909 | 45 | 352 | 2.0 | 3.0 | 0.00 | 0.00 | 0.00 | 65 | 1012.7 |
| 20260506210909 | 45 | 348 | 3.0 | 6.0 | 0.00 | 0.00 | 0.00 | 64 | 1012.7 |
| 20260506210409 | 45 | 349 | 3.0 | 5.0 | 0.00 | 0.00 | 0.00 | 64 | 1012.7 |
| 20260506205909 | 45 | 355 | 3.0 | 8.0 | 0.00 | 0.00 | 0.00 | 64 | 1012.8 |
| 20260506205409 | 45 | 338 | 3.0 | 5.0 | 0.00 | 0.00 | 0.00 | 63 | 1012.8 |
| 20260506204909 | 45 | 347 | 3.0 | 5.0 | 0.00 | 0.00 | 0.00 | 64 | 1012.8 |
| 20260506204409 | 45 | 349 | 3.0 | 5.0 | 0.00 | 0.00 | 0.00 | 64 | 1012.7 |
| 20260506203909 | 45 | 348 | 3.0 | 7.0 | 0.00 | 0.00 | 0.00 | 64 | 1012.7 |
| 20260506203409 | 45 | 353 | 5.0 | 7.0 | 0.00 | 0.00 | 0.00 | 63 | 1012.7 |
| 20260506202909 | 45 | 341 | 3.0 | 6.0 | 0.00 | 0.00 | 0.00 | 65 | 1012.7 |
| 20260506202408 | 45 | 341 | 3.0 | 6.0 | 0.00 | 0.00 | 0.00 | 64 | 1012.7 |
| 20260506201909 | 45 | 351 | 3.0 | 7.0 | 0.00 | 0.00 | 0.00 | 63 | 1012.7 |
| 20260506201409 | 45 | 357 | 4.0 | 6.0 | 0.00 | 0.00 | 0.00 | 63 | 1012.7 |
| 20260506200909 | 45 | 345 | 3.0 | 6.0 | 0.00 | 0.00 | 0.00 | 63 | 1012.7 |
| 20260506195409 | 45 | 357 | 3.0 | 5.0 | 0.00 | 0.00 | 0.00 | 61 | 1012.7 |
| 20260506194908 | 46 | 344 | 3.0 | 6.0 | 0.00 | 0.00 | 0.00 | 62 | 1012.7 |
| 20260506194408 | 46 | 0 | 3.0 | 6.0 | 0.00 | 0.00 | 0.00 | 63 | 1012.6 |
| 20260506193909 | 46 | 353 | 3.0 | 5.0 | 0.00 | 0.00 | 0.00 | 62 | 1012.6 |
| 20260506193409 | 46 | 3 | 3.0 | 5.0 | 0.00 | 0.00 | 0.00 | 63 | 1012.6 |
| 20260506192909 | 46 | 345 | 3.0 | 5.0 | 0.00 | 0.00 | 0.00 | 64 | 1012.6 |
| 20260506191909 | 45 | 354 | 3.0 | 5.0 | 0.00 | 0.00 | 0.00 | 63 | 1012.6 |
| 20260506190908 | 46 | 347 | 3.0 | 7.0 | 0.00 | 0.00 | 0.00 | 61 | 1012.7 |
| 20260506190409 | 46 | 2 | 3.0 | 5.0 | 0.00 | 0.00 | 0.00 | 62 | 1012.7 |
| 20260506185909 | 46 | 352 | 3.0 | 5.0 | 0.00 | 0.00 | 0.00 | 62 | 1012.7 |
| 20260506185409 | 46 | 351 | 3.0 | 6.0 | 0.00 | 0.00 | 0.00 | 60 | 1012.7 |
| 20260506184908 | 46 | 351 | 3.0 | 6.0 | 0.00 | 0.00 | 0.00 | 60 | 1012.7 |
| 20260506184409 | 46 | 355 | 3.0 | 6.0 | 0.00 | 0.00 | 0.00 | 62 | 1012.7 |
| 20260506183409 | 46 | 351 | 3.0 | 6.0 | 0.00 | 0.00 | 0.00 | 61 | 1012.6 |
| 20260506181409 | 44 | 349 | 2.0 | 7.0 | 0.00 | 0.00 | 0.00 | 65 | 1012.7 |
| 20260506180908 | 44 | 5 | 3.0 | 6.0 | 0.00 | 0.00 | 0.00 | 64 | 1012.7 |
| 20260506180409 | 44 | 345 | 3.0 | 6.0 | 0.00 | 0.00 | 0.00 | 65 | 1012.8 |
| 20260506175909 | 44 | 345 | 3.0 | 5.0 | 0.00 | 0.00 | 0.00 | 66 | 1012.8 |
| 20260506175409 | 44 | 343 | 3.0 | 5.0 | 0.00 | 0.00 | 0.00 | 67 | 1012.8 |
| 20260506174910 | 44 | 333 | 2.0 | 5.0 | 0.00 | 0.00 | 0.00 | 66 | 1012.7 |
| 20260506174409 | 44 | 341 | 3.0 | 5.0 | 0.00 | 0.00 | 0.00 | 66 | 1012.8 |
| 20260506173909 | 44 | 348 | 2.0 | 5.0 | 0.00 | 0.00 | 0.00 | 64 | 1012.8 |
| 20260506173409 | 44 | 338 | 2.0 | 3.0 | 0.00 | 0.00 | 0.00 | 64 | 1012.8 |
| 20260506172908 | 44 | 358 | 3.0 | 8.0 | 0.00 | 0.00 | 0.00 | 62 | 1012.9 |
| 20260506171909 | 44 | 352 | 3.0 | 5.0 | 0.00 | 0.00 | 0.00 | 62 | 1013.0 |
| 20260506171410 | 44 | 350 | 3.0 | 5.0 | 0.00 | 0.00 | 0.00 | 64 | 1012.9 |
| 20260506170909 | 44 | 346 | 3.0 | 5.0 | 0.00 | 0.00 | 0.00 | 64 | 1012.9 |
| 20260506165909 | 44 | 344 | 3.0 | 5.0 | 0.00 | 0.00 | 0.00 | 64 | 1013.0 |
| 20260506165408 | 44 | 342 | 3.0 | 6.0 | 0.00 | 0.00 | 0.00 | 66 | 1013.0 |
| 20260506164910 | 43 | 349 | 3.0 | 5.0 | 0.00 | 0.00 | 0.00 | 67 | 1013.0 |
| 20260506164408 | 43 | 342 | 2.0 | 5.0 | 0.00 | 0.00 | 0.00 | 67 | 1013.0 |
| 20260506163909 | 44 | 329 | 3.0 | 5.0 | 0.00 | 0.00 | 0.00 | 67 | 1013.0 |
| 20260506163409 | 44 | 345 | 3.0 | 8.0 | 0.00 | 0.00 | 0.00 | 67 | 1013.0 |
| 20260506162910 | 44 | 343 | 3.0 | 6.0 | 0.00 | 0.00 | 0.00 | 69 | 1012.9 |
| 20260506161908 | 44 | 353 | 3.0 | 5.0 | 0.00 | 0.00 | 0.00 | 69 | 1012.9 |
| 20260506161408 | 44 | 349 | 3.0 | 7.0 | 0.00 | 0.00 | 0.00 | 71 | 1012.9 |
| 20260506160909 | 43 | 357 | 3.0 | 7.0 | 0.00 | 0.00 | 0.00 | 71 | 1012.9 |
| 20260506160409 | 43 | 355 | 2.0 | 5.0 | 0.00 | 0.00 | 0.00 | 70 | 1012.9 |
| 20260506154908 | 43 | 341 | 2.0 | 3.0 | 0.00 | 0.00 | 0.00 | 71 | 1012.7 |
| 20260506153908 | 43 | 6 | 3.0 | 7.0 | 0.00 | 0.00 | 0.00 | 70 | 1012.7 |
| 20260506152409 | 44 | 347 | 2.0 | 8.0 | 0.00 | 0.00 | 0.00 | 67 | 1012.7 |
| 20260506151909 | 44 | 352 | 3.0 | 6.0 | 0.00 | 0.00 | 0.00 | 67 | 1012.7 |
| 20260506151408 | 44 | 349 | 2.0 | 5.0 | 0.00 | 0.00 | 0.00 | 68 | 1012.7 |
| 20260506145409 | 43 | 8 | 2.0 | 8.0 | 0.00 | 0.00 | 0.00 | 66 | 1012.7 |
| 20260506144908 | 43 | 342 | 2.0 | 6.0 | 0.00 | 0.00 | 0.00 | 67 | 1012.6 |
| 20260506144408 | 43 | 342 | 2.0 | 3.0 | 0.00 | 0.00 | 0.00 | 67 | 1012.6 |
| 20260506143909 | 43 | 341 | 3.0 | 5.0 | 0.00 | 0.00 | 0.00 | 67 | 1012.6 |
| 20260506143409 | 43 | 346 | 2.0 | 3.0 | 0.00 | 0.00 | 0.00 | 66 | 1012.5 |
| 20260506142909 | 43 | 5 | 3.0 | 7.0 | 0.00 | 0.00 | 0.00 | 68 | 1012.5 |
| 20260506142410 | 42 | 353 | 2.0 | 5.0 | 0.00 | 0.00 | 0.00 | 68 | 1012.4 |
| 20260506141908 | 43 | 349 | 2.0 | 3.0 | 0.00 | 0.00 | 0.00 | 68 | 1012.5 |
| 20260506141408 | 43 | 356 | 2.0 | 5.0 | 0.00 | 0.00 | 0.00 | 67 | 1012.4 |
| 20260506140909 | 43 | 338 | 2.0 | 5.0 | 0.00 | 0.00 | 0.00 | 67 | 1012.3 |
| 20260506140408 | 43 | 4 | 2.0 | 5.0 | 0.00 | 0.00 | 0.00 | 69 | 1012.3 |
| 20260506135909 | 42 | 354 | 2.0 | 9.0 | 0.00 | 0.00 | 0.00 | 67 | 1012.3 |
| 20260506134910 | 42 | 359 | 2.0 | 5.0 | 0.00 | 0.00 | 0.00 | 66 | 1012.3 |
| 20260506134408 | 42 | 26 | 2.0 | 3.0 | 0.00 | 0.00 | 0.00 | 66 | 1012.3 |
| 20260506133908 | 42 | 294 | 2.0 | 7.0 | 0.00 | 0.00 | 0.00 | 67 | 1012.3 |
| 20260506133408 | 41 | 12 | 2.0 | 6.0 | 0.00 | 0.00 | 0.00 | 67 | 1012.3 |
| 20260506132907 | 41 | 347 | 2.0 | 5.0 | 0.00 | 0.00 | 0.00 | 67 | 1012.3 |
| 20260506132409 | 41 | 191 | 3.0 | 9.0 | 0.00 | 0.00 | 0.00 | 67 | 1012.4 |
| 20260506131909 | 41 | 12 | 2.0 | 7.0 | 0.00 | 0.00 | 0.00 | 69 | 1012.4 |
| 20260506131411 | 41 | 224 | 2.0 | 6.0 | 0.00 | 0.00 | 0.00 | 69 | 1012.4 |
| 20260506130908 | 40 | 334 | 2.0 | 8.0 | 0.00 | 0.00 | 0.00 | 70 | 1012.4 |
| 20260506130408 | 40 | 340 | 1.0 | 7.0 | 0.00 | 0.00 | 0.00 | 70 | 1012.2 |
| 20260506125909 | 40 | 301 | 2.0 | 7.0 | 0.00 | 0.00 | 0.00 | 72 | 1012.3 |
| 20260506125408 | 40 | 249 | 4.0 | 7.0 | 0.00 | 0.00 | 0.00 | 73 | 1012.3 |
| 20260506124909 | 39 | 272 | 3.0 | 7.0 | 0.00 | 0.00 | 0.00 | 73 | 1012.3 |
| 20260506124408 | 39 | 260 | 2.0 | 6.0 | 0.00 | 0.00 | 0.00 | 73 | 1012.3 |
| 20260506123908 | 38 | 167 | 2.0 | 5.0 | 0.00 | 0.00 | 0.00 | 73 | 1012.2 |
| 20260506123408 | 38 | 279 | 2.0 | 8.0 | 0.00 | 0.00 | 0.00 | 73 | 1012.1 |
| 20260506122908 | 37 | 321 | 3.0 | 7.0 | 0.00 | 0.00 | 0.00 | 74 | 1012.1 |
| 20260506122408 | 37 | 237 | 3.0 | 6.0 | 0.00 | 0.00 | 0.00 | 76 | 1012.0 |
| 20260506121909 | 36 | 234 | 3.0 | 6.0 | 0.00 | 0.00 | 0.00 | 77 | 1011.9 |
| 20260506121409 | 35 | 239 | 2.0 | 3.0 | 0.00 | 0.00 | 0.00 | 79 | 1012.0 |
| 20260506120908 | 34 | 228 | 2.0 | 6.0 | 0.00 | 0.00 | 0.00 | 80 | 1012.0 |
| 20260506120408 | 34 | 251 | 3.0 | 6.0 | 0.00 | 0.00 | 0.00 | 83 | 1011.8 |
| 20260506115908 | 33 | 223 | 2.0 | 5.0 | 0.00 | 0.00 | 0.00 | 84 | 1011.8 |
| 20260506115408 | 33 | 225 | 2.0 | 3.0 | 0.00 | 0.00 | 0.00 | 85 | 1011.7 |
| 20260506114909 | 32 | 233 | 1.0 | 3.0 | 0.00 | 0.00 | 0.00 | 86 | 1011.7 |
| 20260506114408 | 32 | 193 | 2.0 | 3.0 | 0.00 | 0.00 | 0.00 | 87 | 1011.7 |
| 20260506113409 | 31 | 217 | 1.0 | 3.0 | 0.00 | 0.00 | 0.00 | 88 | 1011.7 |
| 20260506112909 | 31 | 190 | 2.0 | 3.0 | 0.00 | 0.00 | 0.00 | 88 | 1011.6 |
| 20260506112409 | 30 | 184 | 3.0 | 5.0 | 0.00 | 0.00 | 0.00 | 88 | 1011.5 |
| 20260506111908 | 30 | 170 | 2.0 | 3.0 | 0.00 | 0.00 | 0.00 | 87 | 1011.4 |
| 20260506110409 | 30 | 169 | 2.0 | 3.0 | 0.00 | 0.00 | 0.00 | 86 | 1011.3 |
| 20260506105909 | 30 | 170 | 2.0 | 3.0 | 0.00 | 0.00 | 0.00 | 86 | 1011.3 |
| 20260506104908 | 30 | 169 | 2.0 | 3.0 | 0.00 | 0.00 | 0.00 | 86 | 1011.2 |
| 20260506104407 | 30 | 178 | 2.0 | 3.0 | 0.00 | 0.00 | 0.00 | 85 | 1011.1 |
| 20260506103909 | 30 | 172 | 2.0 | 3.0 | 0.00 | 0.00 | 0.00 | 85 | 1011.1 |
| 20260506103409 | 30 | 173 | 2.0 | 3.0 | 0.00 | 0.00 | 0.00 | 84 | 1011.0 |
| 20260506102908 | 30 | 174 | 2.0 | 3.0 | 0.00 | 0.00 | 0.00 | 83 | 1011.1 |
| 20260506102408 | 31 | 171 | 2.0 | 3.0 | 0.00 | 0.00 | 0.00 | 83 | 1011.0 |
| 20260506101910 | 31 | 182 | 2.0 | 3.0 | 0.00 | 0.00 | 0.00 | 83 | 1011.0 |
| 20260506101409 | 31 | 162 | 2.0 | 3.0 | 0.00 | 0.00 | 0.00 | 82 | 1011.0 |
| 20260506100908 | 32 | 187 | 2.0 | 3.0 | 0.00 | 0.00 | 0.00 | 82 | 1011.0 |
| 20260506100408 | 32 | 178 | 2.0 | 3.0 | 0.00 | 0.00 | 0.00 | 82 | 1011.0 |
| 20260506095908 | 32 | 152 | 2.0 | 3.0 | 0.00 | 0.00 | 0.00 | 81 | 1011.0 |
| 20260506094909 | 33 | 172 | 1.0 | 3.0 | 0.00 | 0.00 | 0.00 | 80 | 1010.9 |
| 20260506094409 | 33 | 171 | 2.0 | 3.0 | 0.00 | 0.00 | 0.00 | 80 | 1011.0 |
| 20260506093909 | 34 | 186 | 2.0 | 3.0 | 0.00 | 0.00 | 0.00 | 80 | 1011.0 |
| 20260506093409 | 34 | 196 | 2.0 | 3.0 | 0.00 | 0.00 | 0.00 | 80 | 1010.9 |
| 20260506092409 | 34 | 259 | 1.0 | 3.0 | 0.00 | 0.00 | 0.00 | 80 | 1011.0 |
| 20260506091908 | 34 | 89 | 1.0 | 3.0 | 0.00 | 0.00 | 0.00 | 80 | 1011.1 |
| 20260506091409 | 34 | 289 | 1.0 | 3.0 | 0.00 | 0.00 | 0.00 | 80 | 1011.1 |
| 20260506090908 | 34 | 352 | 1.0 | 3.0 | 0.00 | 0.00 | 0.00 | 80 | 1011.2 |
| 20260506090409 | 34 | 39 | 1.0 | 3.0 | 0.00 | 0.00 | 0.00 | 79 | 1011.2 |
| 20260506085909 | 35 | 245 | 1.0 | 3.0 | 0.00 | 0.00 | 0.00 | 79 | 1011.2 |
| 20260506085409 | 35 | 257 | 1.0 | 3.0 | 0.00 | 0.00 | 0.00 | 78 | 1011.3 |
| 20260506084909 | 35 | 168 | 2.0 | 5.0 | 0.00 | 0.00 | 0.00 | 77 | 1011.3 |
| 20260506084408 | 36 | 249 | 1.0 | 3.0 | 0.00 | 0.00 | 0.00 | 77 | 1011.3 |
| 20260506083908 | 36 | 200 | 1.0 | 3.0 | 0.00 | 0.00 | 0.00 | 76 | 1011.3 |
| 20260506082908 | 36 | 75 | 1.0 | 3.0 | 0.00 | 0.00 | 0.00 | 75 | 1011.2 |
| 20260506082409 | 37 | 6 | 2.0 | 3.0 | 0.00 | 0.00 | 0.00 | 74 | 1011.2 |